Date String (YYYY-MM-DD hh:mm:ss) UTC,Instrument flags,Ambient pressure (hPa),Sample flow (lpm),Bypass flow (lpm),Sample temperature (°C),Ambient temperature (°C),ASC tube jacket temperature (°C),LED temperature (°C),Box temperature (°C),Sample RH (%),Span deviation,Mass concentration (μg/m³),Mass concentration (μg/m³),Mass concentration (μg/m³)
DateTimeUTC,F1_M11,P_M11,Q1_M11,Q2_M11,T1_M11,T2_M11,T3_M11,T4_M11,T5_M11,U1_M11,ZSPAN_M11,X0_M11,X2_M11,X1_M11
2023-04-23 11:00:00,,0830.2,4.99,0.00,22.7,23.1,00.0,30.8,24.8,11.9,0000.0,0004.34,0003.09,0002.65
2023-04-23 11:01:00,,0830.3,4.99,0.00,22.8,23.1,00.0,30.9,24.7,11.8,0000.0,0004.45,0003.10,0002.67
2023-04-23 11:02:00,,0830.2,5.00,0.00,22.8,22.9,00.0,31.0,24.5,11.8,0000.0,0005.74,0003.10,0002.68
2023-04-23 11:03:00,,0830.2,5.01,0.00,22.8,22.6,00.0,31.0,24.5,11.8,0000.0,0005.75,0003.11,0002.68
2023-04-23 11:04:00,,0830.2,5.00,0.00,22.8,22.3,00.0,31.0,24.4,11.8,0000.0,0005.76,0003.12,0002.68
2023-04-23 11:05:00,,0830.3,5.00,0.00,22.7,22.0,00.0,31.0,24.3,11.8,0000.0,0005.66,0003.10,0002.67
2023-04-23 11:06:00,,0830.3,4.99,0.00,22.7,21.8,00.0,31.0,24.3,11.8,0000.0,0005.71,0003.10,0002.66
2023-04-23 11:07:00,,0830.2,5.01,0.00,22.7,21.6,00.0,31.1,24.3,11.8,0000.0,0005.47,0003.09,0002.66
2023-04-23 11:08:00,,0830.3,5.01,0.00,22.7,21.5,00.0,31.1,24.3,11.8,0000.0,0005.45,0003.11,0002.65
2023-04-23 11:09:00,,0830.3,5.00,0.00,22.7,21.4,00.0,31.1,24.3,11.8,0000.0,0005.48,0003.12,0002.65
2023-04-23 11:10:00,,0830.2,5.00,0.00,22.7,21.3,00.0,31.1,24.2,11.9,0000.0,0005.54,0003.14,0002.67
2023-04-23 11:11:00,,0830.2,5.00,0.00,22.7,21.2,00.0,31.1,24.2,11.9,0000.0,0005.43,0003.13,0002.67
2023-04-23 11:12:00,,0830.1,5.00,0.00,22.6,21.1,00.0,31.1,24.2,11.9,0000.0,0005.30,0003.11,0002.66
2023-04-23 11:13:00,,0830.2,4.99,0.00,22.6,21.0,00.0,31.0,24.1,11.9,0000.0,0004.21,0003.12,0002.66
2023-04-23 11:14:00,,0830.2,5.00,0.00,22.6,20.9,00.0,31.0,24.1,11.9,0000.0,0004.36,0003.13,0002.66
2023-04-23 11:15:00,,0830.2,5.00,0.00,22.6,20.9,00.0,31.0,24.1,11.9,0000.0,0004.52,0003.14,0002.66
2023-04-23 11:16:00,,0830.1,5.00,0.00,22.6,20.9,00.0,31.0,24.0,11.9,0000.0,0004.61,0003.17,0002.67
2023-04-23 11:17:00,,0830.1,5.01,0.00,22.5,20.8,00.0,31.0,24.0,11.9,0000.0,0004.64,0003.18,0002.70
2023-04-23 11:18:00,,0830.2,5.00,0.00,22.5,20.8,00.0,31.0,24.0,11.9,0000.0,0004.66,0003.19,0002.69
2023-04-23 11:19:00,,0830.1,5.00,0.00,22.5,20.7,00.0,31.0,24.0,12.0,0000.0,0004.74,0003.20,0002.72
2023-04-23 11:20:00,,0830.1,4.99,0.00,22.5,20.9,00.0,30.9,24.1,12.1,0000.0,0004.85,0003.23,0002.74
2023-04-23 11:21:00,,0830.2,5.01,0.00,22.6,21.8,00.0,30.9,24.4,12.2,0000.0,0004.80,0003.22,0002.76
2023-04-23 11:22:00,,0830.3,4.99,0.00,22.7,22.8,00.0,30.9,24.7,12.2,0000.0,0004.87,0003.24,0002.79
2023-04-23 11:23:00,,0830.2,4.99,0.00,22.8,23.1,00.0,30.9,24.8,12.2,0000.0,0004.91,0003.25,0002.82
2023-04-23 11:24:00,,0830.2,5.01,0.00,22.8,22.8,00.0,31.0,24.6,12.1,0000.0,0004.89,0003.26,0002.84
2023-04-23 11:25:00,,0830.1,5.00,0.00,22.8,22.5,00.0,31.0,24.5,12.1,0000.0,0004.66,0003.28,0002.87
2023-04-23 11:26:00,,0830.1,5.00,0.00,22.8,22.2,00.0,31.1,24.4,12.0,0000.0,0004.58,0003.29,0002.90
2023-04-23 11:27:00,,0830.1,5.00,0.00,22.8,21.9,00.0,31.1,24.3,11.8,0000.0,0004.47,0003.27,0002.90
2023-04-23 11:28:00,,0830.1,5.00,0.00,22.7,21.7,00.0,31.1,24.2,11.9,0000.0,0004.44,0003.27,0002.91
2023-04-23 11:29:00,,0830.1,5.01,0.00,22.7,21.5,00.0,31.1,24.2,12.1,0000.0,0004.50,0003.28,0002.94
2023-04-23 11:30:00,,0830.1,5.01,0.00,22.7,21.3,00.0,31.1,24.2,12.1,0000.0,0004.43,0003.29,0002.98
2023-04-23 11:31:00,,0830.1,5.00,0.00,22.6,21.2,00.0,31.1,24.1,12.2,0000.0,0004.31,0003.28,0003.01
2023-04-23 11:32:00,,0830.1,5.00,0.00,22.6,21.1,00.0,31.1,24.1,12.4,0000.0,0004.44,0003.29,0003.04
2023-04-23 11:33:00,,0830.1,5.00,0.00,22.6,21.0,00.0,31.0,24.0,12.6,0000.0,0004.53,0003.30,0003.07
2023-04-23 11:34:00,,0830.1,4.99,0.00,22.6,20.9,00.0,31.0,24.0,12.5,0000.0,0004.61,0003.32,0003.09
2023-04-23 11:35:00,,0830.1,4.99,0.00,22.5,20.8,00.0,31.0,24.0,12.5,0000.0,0004.71,0003.34,0003.11
2023-04-23 11:36:00,,0830.1,5.00,0.00,22.5,20.7,00.0,31.0,23.9,12.5,0000.0,0004.73,0003.34,0003.12
2023-04-23 11:37:00,,0830.1,5.00,0.00,22.5,20.8,00.0,30.9,24.0,12.6,0000.0,0004.71,0003.35,0003.14
2023-04-23 11:38:00,,0830.1,5.01,0.00,22.6,21.7,00.0,30.9,24.4,12.6,0000.0,0004.79,0003.39,0003.17
2023-04-23 11:39:00,,0830.1,4.99,0.00,22.7,22.7,00.0,30.9,24.7,12.5,0000.0,0004.89,0003.42,0003.20
2023-04-23 11:40:00,,0830.1,4.99,0.00,22.8,23.1,00.0,30.9,24.8,12.4,0000.0,0005.03,0003.44,0003.21
2023-04-23 11:41:00,,0830.1,5.00,0.00,22.8,22.8,00.0,31.0,24.6,12.5,0000.0,0005.06,0003.45,0003.23
2023-04-23 11:42:00,,0830.2,5.00,0.00,22.8,22.4,00.0,31.0,24.4,12.5,0000.0,0005.06,0003.46,0003.24
2023-04-23 11:43:00,,0830.1,5.00,0.00,22.8,22.1,00.0,31.1,24.4,12.5,0000.0,0004.93,0003.47,0003.24
2023-04-23 11:44:00,,0830.1,5.00,0.00,22.7,21.8,00.0,31.1,24.3,12.5,0000.0,0004.95,0003.48,0003.23
2023-04-23 11:45:00,,0830.1,5.00,0.00,22.7,21.5,00.0,31.1,24.2,12.6,0000.0,0005.00,0003.50,0003.24
2023-04-23 11:46:00,,0830.1,5.00,0.00,22.6,21.3,00.0,31.1,24.1,12.5,0000.0,0004.90,0003.50,0003.25
2023-04-23 11:47:00,,0830.1,5.01,0.00,22.6,21.1,00.0,31.1,24.1,12.6,0000.0,0004.83,0003.50,0003.26
2023-04-23 11:48:00,,0830.1,5.00,0.00,22.6,21.0,00.0,31.0,24.0,12.3,0000.0,0004.79,0003.48,0003.25
2023-04-23 11:49:00,,0830.1,5.00,0.00,22.5,20.9,00.0,31.0,24.0,12.0,0000.0,0004.78,0003.47,0003.23
2023-04-23 11:50:00,,0830.1,5.00,0.00,22.5,20.8,00.0,31.0,23.9,11.8,0000.0,0004.65,0003.43,0003.20
2023-04-23 11:51:00,,0830.1,5.01,0.00,22.5,20.7,00.0,31.0,23.9,11.8,0000.0,0004.47,0003.39,0003.18
2023-04-23 11:52:00,,0830.1,5.01,0.00,22.4,20.6,00.0,31.0,23.9,11.7,0000.0,0004.25,0003.34,0003.14
2023-04-23 11:53:00,,0830.1,5.01,0.00,22.5,21.2,00.0,30.9,24.2,11.8,0000.0,0004.23,0003.32,0003.11
2023-04-23 11:54:00,,0830.1,4.98,0.00,22.6,22.2,00.0,30.9,24.5,11.8,0000.0,0004.20,0003.31,0003.08
2023-04-23 11:55:00,,0830.1,5.01,0.00,22.7,23.1,00.0,30.9,24.8,11.8,0000.0,0004.06,0003.27,0003.04
2023-04-23 11:56:00,,0830.1,5.01,0.00,22.8,23.0,00.0,31.0,24.6,11.7,0000.0,0003.91,0003.23,0003.01
2023-04-23 11:57:00,,0830.1,4.98,0.00,22.8,22.7,00.0,31.0,24.5,11.7,0000.0,0004.05,0003.19,0002.94
2023-04-23 11:58:00,,0830.1,5.00,0.00,22.7,22.3,00.0,31.0,24.4,12.0,0000.0,0004.14,0003.17,0002.90
2023-04-23 11:59:00,,0830.1,5.00,0.00,22.7,22.0,00.0,31.1,24.3,12.3,0000.0,0004.24,0003.18,0002.91
